DECAYED

ATLAS CENTAUR R/B, 38770 (Decayed)

Orbit data source: Space-Track

ATLAS CENTAUR R/B, 38770 was space debris in LEO originally from an American launch on Thu, 13 Sep 2012 UTC via an ATLAS V 401 launch vehicle from the Air Force Western Test Range (AFWTR). Debris objects in space refer to the collection of defunct objects orbiting the Earth. Examples of debris include non-operational satellites, rocket bodies, and fragments generated from explosions, collisions, or faulty payload assembly.

Not visible in the next 10 days
Identifier
38770, 2012-048N
Orbit
Decayed
Country
Flag of USUS
Related business
Manufacturer
USN PGS
Mission
Decayed spacecraft
Bus & Motor
NPSCUL, Unknown motor
Mass
~45 kg wet, ~45 kg dry
Launch date (UTC)
2012-09-13 (14 years ago)
Launch vehicle
ATLAS V 401
Launch site
Air Force Western Test Range (AFWTR)
Object type
Payload
Rocket body
Debris
Shape & HBR
Cyl, 3.7 m
Radar Cross Section
32.260 m², Large (>1 m²)

Expand to show TLE details & history
Last TLE update: 2 months ago

TLE from 2 months ago
0 ATLAS CENTAUR R/B
1 38770U 12048N   26087.66847406  .12026835  79161-5  28160-3 0  9990
2 38770  64.6023 157.0879 0010633 276.4947  83.5028 16.45462449106364
Epoch: 2026-03-28T16:02Z
TLE epoch observation values (Epoch: 2026-03-28T16:02:36.158Z)
Latitude
-0.00006°
Longitude
90.3518°
Altitude
152.661 km
Speed
7.816 km/s
True Right ascension
10h 28m 21s
True Declination
0° 00' 00"
Sunlit
Object was in full shadow at epoch
Visualization orbit readout
Latitude
Unknown
Longitude
Unknown
Altitude
Unknown
Speed
Unknown
Apparent Right ascension
Unknown
Apparent Declination
Unknown
Sunlit
N/A
Visualization observer readout
Local Sidereal Time
03:21:47
Azimuth
Unknown
Elevation
Unknown
Doppler factor
Unknown
Orbital elements
Apogee altitude
156.746 km
Perigee altitude
142.864 km
Semi-major axis
6,527.942 km
Eccentricity
0.00106
Inclination
64.6023°
RAAN
157.0879°
Arg. of periapsis
276.4947°
True anomaly
83.62388°
Mean anomaly
83.5028°
Eccentric anomaly
83.56334°
Mean motion
4.11508 °/min
Orbital period
87.48 mins
BSTAR
0.0002816
Loading maneuver chart data...
Computing Atmospheric mass density...
Loading historical data...
Loading historical data...
Loading historical data...
Loading historical data...
Loading historical data...
Loading historical data...
Loading historical data...

Documentation

Showing up to 5 results
|